Tracking 18852 objects as of 24-Nov-2017
HD Live streaming from Space Station
objects crossing your sky now

IUS R/B(1)

Track IUS R/B(1) now!
10-day predictions


NORAD ID: 25868
Int'l Code: 1999-040C
Perigee: 256.9 km
Apogee: 11,316.9 km
Inclination: 28.5 °
Period: 222.4 minutes
Semi major axis: 12157 km
RCS: 10.3695 m2 (large)
Launch date: July 23, 1999
Source: United States (US)
Launch site: AIR FORCE EASTERN TEST RANGE (AFETR)

Note: This is a ROCKET BODY
aabbcc
Your satellite tracking list
Your tracking list is empty




NASA's NSSDC Master Catalog

Two Line Element Set (TLE):
1 25868U 99040C   17327.41092633  .00014050  00000-0  69864-3 0  9995
2 25868  28.5151  16.5800 4548474 225.1018  87.5476  6.47614019407150
Source of the keplerian elements: AFSPC